This is the latest recevied weather packets stored in our database for station/object 9M4RLD-3. If no packets are shown the sender has not sent any weather packets the latest 10 day(s).
| Time | Temp. | Humidity | Pressure | Rain* | Wind** | Luminosity | Snow |
|---|---|---|---|---|---|---|---|
| 1778035912 | 24.44° C | 100% | 1033.5 hPa | - | - | - | - |
| 1778035875 | 24.44° C | 100% | 1033.5 hPa | - | - | - | - |
| 1778034675 | 24.44° C | 100% | 1033.7 hPa | - | - | - | - |
| 1778033475 | 25° C | 100% | 1033.6 hPa | - | - | - | - |
| 1778032275 | 25° C | 100% | 1033.6 hPa | - | - | - | - |
| 1778031075 | 24.44° C | 100% | 1033.4 hPa | - | - | - | - |
| 1778029875 | 23.89° C | 100% | 1033.2 hPa | - | - | - | - |
| 1778028675 | 23.89° C | 100% | 1032.9 hPa | - | - | - | - |
| 1778027475 | 23.89° C | 100% | 1032.8 hPa | - | - | - | - |
| 1778026347 | 23.33° C | 100% | 1032.6 hPa | - | - | - | - |
| 1778026275 | 23.33° C | 100% | 1032.6 hPa | - | - | - | - |
| 1778025075 | 23.33° C | 100% | 1032.3 hPa | - | - | - | - |
| 1778023875 | 22.78° C | 100% | 1032.1 hPa | - | - | - | - |
| 1778022675 | 22.78° C | 100% | 1032.1 hPa | - | - | - | - |
| 1778021475 | 22.78° C | 100% | 1031.7 hPa | - | - | - | - |
| 1778020275 | 22.78° C | 100% | 1031.7 hPa | - | - | - | - |
| 1778019074 | 22.78° C | 100% | 1031.5 hPa | - | - | - | - |
| 1778017874 | 22.78° C | 100% | 1031.5 hPa | - | - | - | - |
| 1778016674 | 23.33° C | 100% | 1031.5 hPa | - | - | - | - |
| 1778015518 | 23.33° C | 100% | 1031.4 hPa | - | - | - | - |
| 1778015474 | 23.33° C | 100% | 1031.4 hPa | - | - | - | - |
| 1778014274 | 23.33° C | 100% | 1031.3 hPa | - | - | - | - |
| 1778013074 | 23.33° C | 100% | 1031.4 hPa | - | - | - | - |
| 1778011918 | 23.33° C | 100% | 1031.6 hPa | - | - | - | - |
| 1778011874 | 23.33° C | 100% | 1031.6 hPa | - | - | - | - |
* Rain since midnight (hover to see other rain measurements)
** Current wind speed in m/s (hover to see current wind gust speed)